DW1347 Weather Reports


time (UTC)temp
F
wind
direction
speed
knots
gust
knots
rain 1hr
in
rain 24hr
in
rain mn
in
humidity
%
barometer
mb
20260903195344 79 185 3.5 4.3 0.00 0.00 0.00 27 1027.0
20260903194838 77 333 4.3 5.2 0.00 0.00 0.00 28 1027.1
20260903194334 77 333 4.3 5.2 0.00 0.00 0.00 28 1027.1
20260903193829 78 29 1.7 1.7 0.00 0.00 0.00 28 1027.4
20260903193326 79 321 4.3 6.1 0.00 0.00 0.00 27 1027.1
20260903192821 80 196 2.6 2.6 0.00 0.00 0.00 28 1027.5
20260903192316 79 237 2.6 2.6 0.00 0.00 0.00 28 1027.1
20260903191812 79 225 3.5 4.3 0.00 0.00 0.00 27 1027.3
20260903191308 79 171 1.7 4.3 0.00 0.00 0.00 28 1027.5
20260903190808 79 280 4.3 6.1 0.00 0.00 0.00 28 1027.3
20260903190303 79 223 2.6 2.6 0.00 0.00 0.00 28 1027.5
20260903185757 78 226 1.7 1.7 0.00 0.00 0.00 31 1027.5
20260903185257 77 111 0.9 1.7 0.00 0.00 0.00 30 1027.6
20260903184753 79 29 2.6 5.2 0.00 0.00 0.00 30 1027.6
20260903184249 77 60 2.6 2.6 0.00 0.00 0.00 29 1027.5
20260903183744 77 208 2.6 2.6 0.00 0.00 0.00 30 1027.8
20260903183238 78 251 1.7 1.7 0.00 0.00 0.00 28 1027.8
20260903182737 78 245 2.6 2.6 0.00 0.00 0.00 31 1027.9
20260903182232 78 165 5.2 6.1 0.00 0.00 0.00 29 1027.8
20260903181731 79 216 4.3 5.2 0.00 0.00 0.00 29 1027.9
20260903181226 77 155 0.9 0.9 0.00 0.00 0.00 29 1028.0
20260903180722 77 129 3.5 5.2 0.00 0.00 0.00 29 1028.5
20260903180215 77 114 1.7 2.6 0.00 0.00 0.00 30 1028.1
20260903175715 76 216 0.9 1.7 0.00 0.00 0.00 30 1028.4
20260903175209 76 39 1.7 1.7 0.00 0.00 0.00 31 1028.5
20260903174708 76 208 0.9 0.9 0.00 0.00 0.00 32 1028.5
20260903174203 76 345 1.7 2.6 0.00 0.00 0.00 32 1028.9
20260903173658 74 25 1.7 1.7 0.00 0.00 0.00 33 1028.6
20260903173154 74 215 2.6 4.3 0.00 0.00 0.00 32 1028.6
20260903172649 74 279 3.5 4.3 0.00 0.00 0.00 32 1028.4
20260903172144 75 169 3.5 4.3 0.00 0.00 0.00 32 1028.9
20260903171638 75 146 2.6 2.6 0.00 0.00 0.00 33 1028.8
20260903171134 76 103 0.9 1.7 0.00 0.00 0.00 32 1028.6
20260903170633 75 248 2.6 4.3 0.00 0.00 0.00 34 1028.8
20260903170129 74 101 6.1 7.0 0.00 0.00 0.00 34 1028.6
20260903165627 74 125 1.7 1.7 0.00 0.00 0.00 33 1028.5
20260903165121 73 155 2.6 5.2 0.00 0.00 0.00 34 1028.6
20260903164616 74 277 2.6 5.2 0.00 0.00 0.00 34 1028.6
20260903164107 73 187 1.7 1.7 0.00 0.00 0.00 34 1028.5
20260903163606 74 230 1.7 2.6 0.00 0.00 0.00 35 1028.3
20260903163103 73 253 2.6 2.6 0.00 0.00 0.00 36 1028.5
20260903162559 72 243 3.5 5.2 0.00 0.00 0.00 36 1028.5
20260903162054 72 232 0.9 1.7 0.00 0.00 0.00 37 1028.5
20260903161549 72 201 2.6 2.6 0.00 0.00 0.00 37 1028.5
20260903161045 71 192 2.6 4.3 0.00 0.00 0.00 37 1028.5
20260903160544 72 252 2.6 2.6 0.00 0.00 0.00 38 1028.4
20260903160039 72 203 3.5 4.3 0.00 0.00 0.00 37 1028.6
20260903155538 71 196 0.9 1.7 0.00 0.00 0.00 38 1028.8
20260903155034 71 237 3.5 5.2 0.00 0.00 0.00 37 1028.4
20260903154530 71 211 1.7 2.6 0.00 0.00 0.00 39 1028.4
20260903154026 71 123 1.7 4.3 0.00 0.00 0.00 39 1028.3
20260903153520 70 226 2.6 2.6 0.00 0.00 0.00 39 1028.6
20260903153017 70 262 1.7 2.6 0.00 0.00 0.00 39 1028.4
20260903152512 70 232 2.6 4.3 0.00 0.00 0.00 39 1028.6
20260903152008 70 185 0.0 0.9 0.00 0.00 0.00 38 1029.0
20260903151507 69 208 4.3 7.0 0.00 0.00 0.00 39 1028.6
20260903151003 69 250 1.7 2.6 0.00 0.00 0.00 39 1028.5
20260903150457 69 317 1.7 2.6 0.00 0.00 0.00 41 1028.6
20260903145951 69 164 2.6 2.6 0.00 0.00 0.00 40 1028.8
20260903145447 68 197 0.9 0.9 0.00 0.00 0.00 41 1028.8
20260903144942 67 203 1.7 1.7 0.00 0.00 0.00 46 1029.3
20260903144441 67 213 3.5 4.3 0.00 0.00 0.00 43 1029.0
20260903143937 67 227 0.9 1.7 0.00 0.00 0.00 42 1029.0
20260903143433 66 82 0.9 1.7 0.00 0.00 0.00 43 1028.9
20260903142929 66 160 2.6 2.6 0.00 0.00 0.00 43 1029.0
20260903142424 65 149 3.5 5.2 0.00 0.00 0.00 44 1028.9
20260903141920 64 221 0.0 0.0 0.00 0.00 0.00 46 1028.8
20260903141415 63 210 1.7 1.7 0.00 0.00 0.00 46 1029.0
20260903140911 60 221 1.7 1.7 0.00 0.00 0.00 54 1029.0
20260903140401 58 248 0.9 1.7 0.00 0.00 0.00 56 1029.0
20260903135856 58 290 0.9 1.7 0.00 0.00 0.00 59 1028.8
20260903135352 58 219 0.9 0.9 0.00 0.00 0.00 57 1029.0
20260903134850 56 171 0.9 1.7 0.00 0.00 0.00 61 1028.8
20260903134346 55 187 0.9 0.9 0.00 0.00 0.00 61 1029.0
20260903133843 54 181 0.9 0.9 0.00 0.00 0.00 63 1028.8
20260903133339 52 215 0.0 0.0 0.00 0.00 0.00 66 1028.6
20260903132834 51 211 0.0 0.0 0.00 0.00 0.00 66 1029.0
20260903132330 50 196 0.9 0.9 0.00 0.00 0.00 67 1028.6
20260903131824 50 222 0.0 0.0 0.00 0.00 0.00 68 1028.6
20260903131324 50 220 0.0 0.0 0.00 0.00 0.00 69 1028.6
20260903130823 48 180 0.9 1.7 0.00 0.00 0.00 69 1028.6
20260903130318 48 204 0.0 0.0 0.00 0.00 0.00 70 1028.6
20260903125817 48 173 0.9 0.9 0.00 0.00 0.00 70 1028.5
20260903125312 48 208 0.0 0.0 0.00 0.00 0.00 70 1028.6
20260903124811 48 208 0.0 0.0 0.00 0.00 0.00 71 1028.4
20260903124307 48 234 0.0 0.0 0.00 0.00 0.00 69 1028.3
20260903123805 49 213 0.0 0.9 0.00 0.00 0.00 70 1028.4
20260903123305 50 225 0.0 0.0 0.00 0.00 0.00 68 1028.4
20260903122804 50 155 2.6 2.6 0.00 0.00 0.00 65 1028.1
20260903122259 49 236 0.0 0.0 0.00 0.00 0.00 66 1027.9
20260903121756 50 34 0.9 0.9 0.00 0.00 0.00 67 1028.1
20260903121253 51 170 0.9 1.7 0.00 0.00 0.00 67 1027.9
20260903120749 51 204 0.0 0.9 0.00 0.00 0.00 64 1028.0
20260903120242 52 221 0.0 0.0 0.00 0.00 0.00 63 1027.8
20260903115741 52 216 0.0 0.0 0.00 0.00 0.00 61 1028.1
20260903115236 53 205 1.7 1.7 0.00 0.00 0.00 60 1028.0
20260903114736 54 164 1.7 1.7 0.00 0.00 0.00 58 1028.0
20260903114232 54 171 2.6 2.6 0.00 0.00 0.00 58 1027.9
20260903113727 50 212 0.0 0.0 0.00 0.00 0.00 67 1027.8
20260903113223 48 221 0.0 0.0 0.00 0.00 0.00 68 1027.9
20260903112719 48 213 0.0 0.0 0.00 0.00 0.00 69 1027.9
20260903112214 48 230 0.0 0.0 0.00 0.00 0.00 69 1028.0
20260903111712 48 217 0.0 0.9 0.00 0.00 0.00 68 1027.9
20260903111208 48 220 0.0 0.0 0.00 0.00 0.00 70 1027.8
20260903110658 47 158 2.6 2.6 0.00 0.00 0.00 72 1028.0
20260903110154 49 224 0.0 0.0 0.00 0.00 0.00 69 1027.9
20260903105653 49 177 1.7 1.7 0.00 0.00 0.00 68 1027.9
20260903105149 48 199 0.0 0.0 0.00 0.00 0.00 72 1028.0
20260903104648 47 208 0.0 0.9 0.00 0.00 0.00 73 1028.1
20260903104144 49 169 1.7 1.7 0.00 0.00 0.00 68 1027.9
20260903103639 49 216 0.9 1.7 0.00 0.00 0.00 68 1027.9
20260903103136 49 215 0.9 0.9 0.00 0.00 0.00 69 1027.8
20260903102631 49 227 0.0 0.0 0.00 0.00 0.00 70 1027.9
20260903102129 51 217 0.0 0.0 0.00 0.00 0.00 68 1028.0
20260903101624 54 209 0.0 0.0 0.00 0.00 0.00 59 1027.8
20260903101119 52 132 3.5 5.2 0.00 0.00 0.00 59 1028.0
20260903100614 52 155 2.6 2.6 0.00 0.00 0.00 62 1028.0
20260903100113 51 221 0.0 0.0 0.00 0.00 0.00 64 1027.8
20260903095611 50 173 1.7 1.7 0.00 0.00 0.00 63 1027.6
20260903095111 50 186 0.0 0.9 0.00 0.00 0.00 68 1028.1
20260903094606 54 262 0.9 0.9 0.00 0.00 0.00 60 1028.0
20260903094101 54 206 0.9 0.9 0.00 0.00 0.00 58 1027.9
20260903093556 53 154 2.6 2.6 0.00 0.00 0.00 59 1027.8
20260903093052 53 184 0.9 0.9 0.00 0.00 0.00 60 1027.9
20260903092551 52 184 0.0 0.9 0.00 0.00 0.00 62 1027.8
20260903092045 50 183 0.9 0.9 0.00 0.00 0.00 66 1027.6
20260903091544 48 219 0.0 0.0 0.00 0.00 0.00 73 1027.8
20260903091038 48 193 0.9 0.9 0.00 0.00 0.00 74 1027.9
20260903090535 48 214 0.0 0.0 0.00 0.00 0.00 74 1028.1
20260903090033 48 202 0.0 0.9 0.00 0.00 0.00 75 1027.9
20260903085531 48 214 0.0 0.0 0.00 0.00 0.00 75 1028.1
20260903085027 48 225 0.0 0.0 0.00 0.00 0.00 75 1028.1
20260903084525 48 222 0.0 0.0 0.00 0.00 0.00 74 1027.9
20260903084020 48 201 0.0 0.0 0.00 0.00 0.00 75 1028.4
20260903083516 48 217 0.0 0.0 0.00 0.00 0.00 75 1028.1
20260903083010 48 197 0.0 0.0 0.00 0.00 0.00 76 1028.1
20260903082504 48 217 0.0 0.0 0.00 0.00 0.00 77 1028.0
20260903082000 48 217 0.0 0.0 0.00 0.00 0.00 77 1028.0
20260903081455 49 230 0.0 0.0 0.00 0.00 0.00 77 1028.3
20260903080951 49 219 0.9 0.9 0.00 0.00 0.00 77 1028.1
20260903080447 49 214 0.0 0.0 0.00 0.00 0.00 77 1028.0
20260903075943 49 179 0.9 1.7 0.00 0.00 0.00 77 1028.1
20260903075438 48 187 0.9 0.9 0.00 0.00 0.00 79 1028.1
20260903074933 49 209 0.0 0.0 0.00 0.00 0.00 79 1028.3
20260903074432 49 212 0.0 0.0 0.00 0.00 0.00 79 1028.0
20260903073928 50 219 0.0 0.0 0.00 0.00 0.00 78 1028.4
20260903073423 49 175 1.7 1.7 0.00 0.00 0.00 78 1028.6
20260903072918 50 196 0.9 0.9 0.00 0.00 0.00 77 1028.5
20260903072414 50 222 0.0 0.0 0.00 0.00 0.00 77 1028.4
20260903071911 50 184 0.0 0.0 0.00 0.00 0.00 75 1028.6
20260903071407 51 219 0.0 0.0 0.00 0.00 0.00 77 1028.4
20260903070903 51 193 0.0 0.0 0.00 0.00 0.00 77 1028.5
20260903070357 51 219 0.0 0.0 0.00 0.00 0.00 77 1028.6
20260903065851 52 154 1.7 1.7 0.00 0.00 0.00 78 1028.5
20260903065351 52 154 1.7 1.7 0.00 0.00 0.00 78 1028.5
20260903064850 53 203 0.0 0.9 0.00 0.00 0.00 74 1028.6
20260903064346 53 213 0.9 0.9 0.00 0.00 0.00 74 1028.6
20260903063842 53 193 0.0 0.0 0.00 0.00 0.00 76 1028.5
20260903063337 53 212 0.0 0.0 0.00 0.00 0.00 76 1028.6
20260903062833 53 221 0.0 0.0 0.00 0.00 0.00 75 1028.5
20260903062332 54 230 0.0 0.0 0.00 0.00 0.00 74 1028.8
20260903061828 54 167 1.7 1.7 0.00 0.00 0.00 74 1028.5
20260903061321 54 219 0.0 0.0 0.00 0.00 0.00 74 1028.4
20260903060818 55 197 0.9 0.9 0.00 0.00 0.00 71 1028.4
20260903060317 55 204 0.9 0.9 0.00 0.00 0.00 72 1028.4
20260903055815 55 166 1.7 1.7 0.00 0.00 0.00 73 1028.8
20260903055313 55 213 0.0 0.0 0.00 0.00 0.00 72 1028.5
20260903054808 56 222 0.0 0.0 0.00 0.00 0.00 71 1028.5
20260903054302 56 179 1.7 1.7 0.00 0.00 0.00 71 1028.6
20260903053800 57 222 0.0 0.0 0.00 0.00 0.00 71 1028.4
20260903053254 56 215 0.0 0.0 0.00 0.00 0.00 70 1028.4
20260903052750 57 216 0.0 0.0 0.00 0.00 0.00 69 1028.6
20260903052245 57 199 0.0 0.0 0.00 0.00 0.00 69 1028.5
20260903051740 57 208 0.0 0.0 0.00 0.00 0.00 68 1028.4
20260903051236 58 204 0.0 0.9 0.00 0.00 0.00 69 1028.5
20260903050731 59 222 0.0 0.0 0.00 0.00 0.00 65 1028.5
20260903050230 59 189 1.7 1.7 0.00 0.00 0.00 66 1028.6
20260903045725 60 209 0.0 0.0 0.00 0.00 0.00 67 1028.8
20260903045221 59 197 1.7 1.7 0.00 0.00 0.00 66 1028.6
20260903044717 58 207 0.9 0.9 0.00 0.00 0.00 68 1028.8
20260903044212 58 232 0.0 0.0 0.00 0.00 0.00 69 1028.5
20260903043709 58 209 0.0 0.0 0.00 0.00 0.00 69 1028.6
20260903043208 58 219 0.0 0.0 0.00 0.00 0.00 69 1029.0
20260903042708 59 218 0.0 0.0 0.00 0.00 0.00 69 1029.0
20260903042203 59 200 0.0 0.0 0.00 0.00 0.00 69 1029.3
20260903041659 59 195 0.0 0.9 0.00 0.00 0.00 69 1029.5
20260903041155 59 241 0.9 0.9 0.00 0.00 0.00 69 1029.1
20260903040654 59 237 0.0 0.9 0.00 0.00 0.00 68 1029.0
20260903040150 59 224 0.9 1.7 0.00 0.00 0.00 68 1029.1
20260903035646 58 233 1.7 1.7 0.00 0.00 0.00 68 1029.0
20260903035142 59 223 0.0 0.0 0.00 0.00 0.00 67 1028.6
20260903034636 59 224 0.0 0.0 0.00 0.00 0.00 65 1028.5
20260903034131 59 195 0.9 0.9 0.00 0.00 0.00 65 1029.0
20260903033627 59 200 0.0 0.0 0.00 0.00 0.00 65 1029.1
20260903033126 59 210 0.0 0.0 0.00 0.00 0.00 65 1029.1
20260903032622 59 195 0.0 0.9 0.00 0.00 0.00 65 1029.3
20260903032117 60 220 0.0 0.0 0.00 0.00 0.00 65 1028.8
20260903031612 60 217 0.9 0.9 0.00 0.00 0.00 63 1028.9
20260903031107 60 181 0.9 0.9 0.00 0.00 0.00 65 1028.6
20260903030603 60 152 2.6 2.6 0.00 0.00 0.00 65 1028.3
20260903030058 60 204 0.9 0.9 0.00 0.00 0.00 66 1028.5
20260903025553 60 224 0.0 0.0 0.00 0.00 0.00 66 1028.8
20260903025049 60 222 0.0 0.9 0.00 0.00 0.00 67 1028.3
20260903024549 61 223 0.0 0.0 0.00 0.00 0.00 63 1028.4
20260903024043 63 219 0.0 0.9 0.00 0.00 0.00 58 1028.4
20260903023539 64 264 1.7 1.7 0.00 0.00 0.00 57 1028.3
20260903023034 63 250 0.9 0.9 0.00 0.00 0.00 57 1028.5
20260903022533 64 251 0.0 0.0 0.00 0.00 0.00 58 1028.6
20260903022032 64 224 0.0 0.0 0.00 0.00 0.00 56 1028.4
20260903021527 64 283 1.7 2.6 0.00 0.00 0.00 55 1028.6
20260903021022 65 210 0.9 0.9 0.00 0.00 0.00 55 1028.6
20260903020518 65 220 1.7 1.7 0.00 0.00 0.00 53 1028.6
20260903020017 65 305 3.5 4.3 0.00 0.00 0.00 55 1028.1
20260903015513 65 172 0.0 0.9 0.00 0.00 0.00 53 1028.1
20260903015008 65 220 0.9 0.9 0.00 0.00 0.00 55 1028.5
20260903014502 65 222 0.9 1.7 0.00 0.00 0.00 54 1028.4
20260903013957 64 211 0.0 0.9 0.00 0.00 0.00 58 1027.8
20260903013457 64 241 0.0 0.0 0.00 0.00 0.00 56 1027.8
20260903012956 64 224 0.9 0.9 0.00 0.00 0.00 55 1027.8
20260903012455 65 207 0.0 0.9 0.00 0.00 0.00 54 1027.6
20260903011954 66 221 0.0 0.0 0.00 0.00 0.00 53 1027.8
20260903011449 66 210 0.0 0.0 0.00 0.00 0.00 52 1027.4
20260903010944 66 200 0.9 0.9 0.00 0.00 0.00 51 1027.5
20260903010439 67 203 0.9 0.9 0.00 0.00 0.00 51 1027.4
20260903005937 68 200 0.0 0.0 0.00 0.00 0.00 51 1027.6
20260903005433 68 250 0.0 0.0 0.00 0.00 0.00 49 1027.5
20260903004929 68 259 1.7 1.7 0.00 0.00 0.00 49 1027.6
20260903004424 68 223 1.7 2.6 0.00 0.00 0.00 49 1027.8
20260903003920 68 222 0.0 0.0 0.00 0.00 0.00 47 1027.6
20260903003419 69 219 0.0 0.0 0.00 0.00 0.00 47 1027.6
20260903002920 69 223 0.0 0.0 0.00 0.00 0.00 46 1027.8
20260903002415 70 212 0.0 0.0 0.00 0.00 0.00 44 1027.3
20260903001915 70 199 0.9 0.9 0.00 0.00 0.00 44 1027.4
20260903001409 70 60 0.0 0.9 0.00 0.00 0.00 43 1027.1
20260903000909 71 224 0.9 0.9 0.00 0.00 0.00 43 1027.1
20260903000404 72 156 0.9 0.9 0.00 0.00 0.00 43 1027.0
20260902235902 73 215 0.0 0.0 0.00 0.00 0.00 41 1027.4
20260902235358 73 219 0.0 0.0 0.00 0.00 0.00 40 1027.1
20260902234852 73 224 0.0 0.0 0.00 0.00 0.00 40 1027.3
20260902234352 73 217 0.0 0.0 0.00 0.00 0.00 41 1027.1
20260902233850 72 197 0.9 0.9 0.00 0.00 0.00 40 1027.5
20260902233345 73 190 0.0 0.0 0.00 0.00 0.00 41 1027.5
20260902232844 73 197 0.9 0.9 0.00 0.00 0.00 40 1027.4
20260902232339 73 19 2.6 4.3 0.00 0.00 0.00 40 1027.0
20260902231838 74 65 2.6 4.3 0.00 0.00 0.00 40 1027.6
20260902231333 75 41 1.7 2.6 0.00 0.00 0.00 40 1027.5
20260902230828 75 192 0.9 1.7 0.00 0.00 0.00 38 1027.8
20260902230328 77 309 1.7 1.7 0.00 0.00 0.00 38 1027.6
20260902225822 74 227 1.7 2.6 0.00 0.00 0.00 38 1027.6
20260902225317 73 236 0.9 0.9 0.00 0.00 0.00 39 1027.6
20260902224816 73 5 2.6 2.6 0.00 0.00 0.00 39 1027.9
20260902224311 73 45 1.7 1.7 0.00 0.00 0.00 40 1027.6
20260902223808 73 140 0.9 1.7 0.00 0.00 0.00 40 1027.5
20260902223307 74 287 2.6 4.3 0.00 0.00 0.00 39 1027.6
20260902222801 74 31 0.9 2.6 0.00 0.00 0.00 39 1027.4
20260902222300 75 194 0.9 0.9 0.00 0.00 0.00 39 1027.3
20260902221755 75 213 0.9 1.7 0.00 0.00 0.00 38 1027.4
20260902221254 74 95 1.7 1.7 0.00 0.00 0.00 39 1027.4
20260902220750 74 255 1.7 1.7 0.00 0.00 0.00 39 1027.5
20260902220249 74 139 2.6 2.6 0.00 0.00 0.00 39 1027.5
20260902215745 74 138 6.1 6.1 0.00 0.00 0.00 38 1027.3
20260902215240 73 226 0.0 0.0 0.00 0.00 0.00 39 1027.5
20260902214736 73 228 0.9 0.9 0.00 0.00 0.00 39 1027.5
20260902214234 73 209 0.0 0.9 0.00 0.00 0.00 39 1027.8
20260902213730 73 197 0.9 0.9 0.00 0.00 0.00 39 1027.9
20260902213230 74 216 0.9 1.7 0.00 0.00 0.00 39 1027.8
20260902212729 74 335 3.5 4.3 0.00 0.00 0.00 39 1027.6
20260902212226 74 262 4.3 5.2 0.00 0.00 0.00 38 1028.0
20260902211722 74 200 1.7 1.7 0.00 0.00 0.00 38 1028.0
20260902211217 74 90 0.9 0.9 0.00 0.00 0.00 38 1028.1
20260902210712 74 146 0.9 0.9 0.00 0.00 0.00 39 1028.0
20260902210207 73 294 1.7 1.7 0.00 0.00 0.00 38 1028.0
20260902205705 74 130 0.9 1.7 0.00 0.00 0.00 39 1028.3
20260902205200 75 151 1.7 1.7 0.00 0.00 0.00 38 1027.9
20260902204655 76 353 2.6 4.3 0.00 0.00 0.00 36 1028.4
20260902204149 74 222 0.0 0.9 0.00 0.00 0.00 37 1028.5
20260902203645 74 99 2.6 4.3 0.00 0.00 0.00 38 1028.5
20260902203140 75 123 0.9 1.7 0.00 0.00 0.00 38 1028.6
20260902202635 75 133 0.9 1.7 0.00 0.00 0.00 37 1028.9
20260902202132 75 4 2.6 4.3 0.00 0.00 0.00 37 1028.3
20260902201627 75 69 2.6 4.3 0.00 0.00 0.00 37 1028.5
20260902201127 74 205 0.0 0.9 0.00 0.00 0.00 37 1028.9
20260902200622 75 38 3.5 5.2 0.00 0.00 0.00 38 1028.8
20260902200118 75 51 3.5 6.1 0.00 0.00 0.00 37 1028.4
20260902195614 74 61 3.5 5.2 0.00 0.00 0.00 37 1028.6